OPS 4682 DEB, 18965

Orbit data source: Space-Track

OPS 4682 DEB, 18965 is space debris in LEO originally from a launch on Sat, 03 Apr 1965 UTC launched from the Air Force Western Test Range (AFWTR). Debris objects in space refer to the collection of defunct objects orbiting the Earth. Examples of debris include non-operational satellites, rocket bodies, and fragments generated from explosions, collisions, or faulty payload assembly.

Loading next visibility...
Identifier
18965, 1965-027AN
Orbit
LEO
Country
Flag of USUS
Related business
Manufacturer
Unknown
Mission
Spacecraft
Bus & Motor
Unknown
Mass
Unknown
Launch date (UTC)
1965-04-03 (61 years ago)
Launch vehicle
Unknown
Launch site
Air Force Western Test Range (AFWTR)
Object type
Payload
Rocket body
Debris
Shape & HBR
Unknown shape, 0.1 m
Radar Cross Section
Small (<0.1 m²)

Expand to show TLE details & history
Last TLE update: 10 hours ago

TLE from 10 hours ago
0 OPS 4682 DEB
1 18965U 65027AN  25294.52103463  .00000674  00000-0  22228-2 0  9990
2 18965  90.2699  20.0598 0040531 349.8411  28.8066 12.99546497919491
Epoch: 2025-10-21T12:30Z
TLE epoch observation values (Epoch: 2025-10-21T12:30:17.392Z)
Latitude
18.86753°
Longitude
162.18776°
Altitude
1,239.147 km
Speed
7.25 km/s
True Right ascension
01h 19m 52s
True Declination
18° 46' 09"
Sunlit
Object was in full shadow at epoch
Visualization orbit readout
Latitude
Unknown
Longitude
Unknown
Altitude
Unknown
Speed
Unknown
Apparent Right ascension
Unknown
Apparent Declination
Unknown
Sunlit
N/A
Visualization observer readout
Local Sidereal Time
17:44:51
Azimuth
Unknown
Elevation
Unknown
Doppler factor
Unknown
Orbital elements
Apogee altitude
1,291.954 km
Perigee altitude
1,230.029 km
Semi-major axis
7,639.129 km
Eccentricity
0.00405
Inclination
90.2699°
RAAN
20.0598°
Arg. of periapsis
349.8411°
True anomaly
29.0314°
Mean anomaly
28.8066°
Eccentric anomaly
28.9189°
Mean motion
3.2507 °/min
Orbital period
110.75 mins
BSTAR
0.0022228
Loading maneuver chart data...
Computing Atmospheric mass density...
Loading historical data...
Loading historical data...
Loading historical data...
Loading historical data...
Loading historical data...
Loading historical data...
Loading historical data...

Documentation

Showing up to 5 results
|